Time,TemperatureF,DewpointF,PressureIn,WindDirection,WindDirectionDegrees,WindSpeedMPH,WindSpeedGustMPH,Humidity,HourlyPrecipIn,Conditions,Clouds,dailyrainin,SolarRadiationWatts/m^2,SoftwareType,DateUTC
2013-03-09 00:00:00,41.3,25.9,30.17,North,353,0.0,0.0,54,0.00,,,0.00,0.00,VWS V14.01,2013-03-09 05:00:00,
2013-03-09 00:02:00,41.2,25.8,30.17,North,358,0.0,2.0,54,0.00,,,0.00,0.00,VWS V14.01,2013-03-09 05:02:00,
2013-03-09 00:07:00,41.2,25.8,30.17,NNW,345,2.0,3.0,54,0.00,,,0.00,0.00,VWS V14.01,2013-03-09 05:07:00,
2013-03-09 00:12:00,41.2,25.8,30.17,North,358,2.0,2.0,54,0.00,,,0.00,0.00,VWS V14.01,2013-03-09 05:12:00,
2013-03-09 00:17:00,41.1,25.7,30.17,NNE,18,0.0,0.0,54,0.00,,,0.00,0.00,VWS V14.01,2013-03-09 05:17:00,
2013-03-09 00:22:00,41.1,25.7,30.17,NNW,335,4.0,5.0,54,0.00,,,0.00,0.00,VWS V14.01,2013-03-09 05:22:00,
2013-03-09 00:27:00,41.1,25.7,30.17,North,6,0.0,1.0,54,0.00,,,0.00,0.00,VWS V14.01,2013-03-09 05:27:00,
2013-03-09 00:32:00,40.9,25.5,30.17,North,356,0.0,0.0,54,0.00,,,0.00,0.00,VWS V14.01,2013-03-09 05:32:00,
2013-03-09 00:37:00,40.8,25.9,30.17,North,7,0.0,0.0,55,0.00,,,0.00,0.00,VWS V14.01,2013-03-09 05:37:00,
2013-03-09 00:42:00,40.6,25.7,30.17,NW,323,1.0,1.0,55,0.00,,,0.00,0.00,VWS V14.01,2013-03-09 05:42:00,
2013-03-09 00:47:00,40.5,25.6,30.18,NNW,334,0.0,0.0,55,0.00,,,0.00,0.00,VWS V14.01,2013-03-09 05:47:00,
2013-03-09 00:52:00,40.2,25.8,30.18,NW,318,0.0,0.0,56,0.00,,,0.00,0.00,VWS V14.01,2013-03-09 05:52:00,
2013-03-09 00:57:00,40.1,25.7,30.18,NNW,345,3.0,3.0,56,0.00,,,0.00,0.00,VWS V14.01,2013-03-09 05:57:00,
2013-03-09 01:02:00,39.9,25.9,30.18,NW,319,1.0,6.0,57,0.00,,,0.00,0.00,VWS V14.01,2013-03-09 06:02:00,
2013-03-09 01:07:00,39.9,25.9,30.18,NNW,342,2.0,3.0,57,0.00,,,0.00,0.00,VWS V14.01,2013-03-09 06:07:00,
2013-03-09 01:12:00,39.8,25.8,30.18,NW,304,0.0,0.0,57,0.00,,,0.00,0.00,VWS V14.01,2013-03-09 06:12:00,
2013-03-09 01:17:00,39.6,25.6,30.19,NW,306,3.0,3.0,57,0.00,,,0.00,0.00,VWS V14.01,2013-03-09 06:17:00,
2013-03-09 01:22:00,39.5,26.0,30.19,North,354,0.0,4.0,58,0.00,,,0.00,0.00,VWS V14.01,2013-03-09 06:22:00,
2013-03-09 01:27:00,39.3,25.8,30.19,NW,311,3.0,5.0,58,0.00,,,0.00,0.00,VWS V14.01,2013-03-09 06:27:00,
2013-03-09 01:32:00,39.1,26.0,30.19,NNW,340,0.0,0.0,59,0.00,,,0.00,0.00,VWS V14.01,2013-03-09 06:32:00,
2013-03-09 01:37:00,38.9,25.8,30.19,NNW,328,0.0,0.0,59,0.00,,,0.00,0.00,VWS V14.01,2013-03-09 06:37:00,
2013-03-09 01:42:00,38.8,25.7,30.19,NNW,328,0.0,0.0,59,0.00,,,0.00,0.00,VWS V14.01,2013-03-09 06:42:00,
2013-03-09 01:47:00,38.8,25.7,30.19,NNW,328,0.0,0.0,59,0.00,,,0.00,0.00,VWS V14.01,2013-03-09 06:47:00,
2013-03-09 01:52:00,38.5,25.4,30.19,NNW,328,0.0,2.0,59,0.00,,,0.00,0.00,VWS V14.01,2013-03-09 06:52:00,
2013-03-09 01:57:00,38.3,25.6,30.19,NNW,328,0.0,1.0,60,0.00,,,0.00,0.00,VWS V14.01,2013-03-09 06:57:00,
2013-03-09 02:02:00,38.2,25.5,30.19,NNW,327,0.0,5.0,60,0.00,,,0.00,0.00,VWS V14.01,2013-03-09 07:02:00,
2013-03-09 02:07:00,38.0,25.8,30.19,NNW,327,0.0,0.0,61,0.00,,,0.00,0.00,VWS V14.01,2013-03-09 07:07:00,
2013-03-09 02:12:00,37.8,25.6,30.19,NNW,327,0.0,0.0,61,0.00,,,0.00,0.00,VWS V14.01,2013-03-09 07:12:00,
2013-03-09 02:17:00,37.8,25.6,30.18,NNW,327,0.0,0.0,61,0.00,,,0.00,0.00,VWS V14.01,2013-03-09 07:17:00,
2013-03-09 02:22:00,37.6,25.8,30.18,NNW,327,0.0,3.0,62,0.00,,,0.00,0.00,VWS V14.01,2013-03-09 07:22:00,
2013-03-09 02:27:00,37.5,25.7,30.18,NNW,327,0.0,0.0,62,0.00,,,0.00,0.00,VWS V14.01,2013-03-09 07:27:00,
2013-03-09 02:32:00,37.3,25.9,30.18,NNW,327,0.0,0.0,63,0.00,,,0.00,0.00,VWS V14.01,2013-03-09 07:32:00,
2013-03-09 02:37:00,37.2,25.8,30.18,NNW,327,0.0,3.0,63,0.00,,,0.00,0.00,VWS V14.01,2013-03-09 07:37:00,
2013-03-09 02:42:00,36.9,25.5,30.18,NNW,327,0.0,0.0,63,0.00,,,0.00,0.00,VWS V14.01,2013-03-09 07:42:00,
2013-03-09 02:47:00,36.6,26.0,30.18,NNW,327,0.0,0.0,65,0.00,,,0.00,0.00,VWS V14.01,2013-03-09 07:47:00,
2013-03-09 02:52:00,36.3,26.4,30.18,NNW,327,0.0,0.0,67,0.00,,,0.00,0.00,VWS V14.01,2013-03-09 07:52:00,
2013-03-09 02:57:00,36.0,26.5,30.18,NNW,327,0.0,0.0,68,0.00,,,0.00,0.00,VWS V14.01,2013-03-09 07:57:00,
2013-03-09 03:02:00,35.6,26.1,30.17,NNW,327,0.0,0.0,68,0.00,,,0.00,0.00,VWS V14.01,2013-03-09 08:02:00,
2013-03-09 03:07:00,35.3,26.5,30.17,NNW,327,0.0,0.0,70,0.00,,,0.00,0.00,VWS V14.01,2013-03-09 08:07:00,
2013-03-09 03:12:00,35.0,26.9,30.17,NNW,327,0.0,0.0,72,0.00,,,0.00,0.00,VWS V14.01,2013-03-09 08:12:00,
2013-03-09 03:17:00,34.9,27.5,30.16,NNW,327,0.0,0.0,74,0.00,,,0.00,0.00,VWS V14.01,2013-03-09 08:17:00,
2013-03-09 03:22:00,34.6,27.2,30.16,NNW,327,0.0,0.0,74,0.00,,,0.00,0.00,VWS V14.01,2013-03-09 08:22:00,
2013-03-09 03:27:00,34.1,27.0,30.16,NNW,327,0.0,0.0,75,0.00,,,0.00,0.00,VWS V14.01,2013-03-09 08:27:00,
2013-03-09 03:32:00,33.8,26.7,30.16,NNW,327,0.0,0.0,75,0.00,,,0.00,0.00,VWS V14.01,2013-03-09 08:32:00,
2013-03-09 03:37:00,33.5,26.1,30.16,NNW,327,0.0,0.0,74,0.00,,,0.00,0.00,VWS V14.01,2013-03-09 08:37:00,
2013-03-09 03:42:00,33.2,25.8,30.16,NNW,327,0.0,0.0,74,0.00,,,0.00,0.00,VWS V14.01,2013-03-09 08:42:00,
2013-03-09 03:47:00,33.1,25.7,30.16,NNW,327,0.0,1.0,74,0.00,,,0.00,0.00,VWS V14.01,2013-03-09 08:47:00,
2013-03-09 03:52:00,32.9,25.5,30.16,NNW,328,0.0,0.0,74,0.00,,,0.00,0.00,VWS V14.01,2013-03-09 08:52:00,
2013-03-09 03:57:00,32.9,25.9,30.16,NNW,328,0.0,0.0,75,0.00,,,0.00,0.00,VWS V14.01,2013-03-09 08:57:00,
2013-03-09 04:02:00,32.8,25.8,30.16,NNW,328,0.0,0.0,75,0.00,,,0.00,0.00,VWS V14.01,2013-03-09 09:02:00,
2013-03-09 04:07:00,32.7,25.7,30.16,NNW,328,0.0,0.0,75,0.00,,,0.00,0.00,VWS V14.01,2013-03-09 09:07:00,
2013-03-09 04:12:00,32.5,25.5,30.16,NNW,328,0.0,0.0,75,0.00,,,0.00,0.00,VWS V14.01,2013-03-09 09:12:00,
2013-03-09 04:17:00,32.5,25.5,30.17,NNW,328,0.0,0.0,75,0.00,,,0.00,0.00,VWS V14.01,2013-03-09 09:17:00,
2013-03-09 04:22:00,32.5,25.5,30.17,NNW,328,0.0,0.0,75,0.00,,,0.00,0.00,VWS V14.01,2013-03-09 09:22:00,
2013-03-09 04:27:00,32.5,25.5,30.17,NNW,328,2.0,2.0,75,0.00,,,0.00,0.00,VWS V14.01,2013-03-09 09:27:00,
2013-03-09 04:32:00,32.5,25.1,30.17,NNW,328,0.0,2.0,74,0.00,,,0.00,0.00,VWS V14.01,2013-03-09 09:32:00,
2013-03-09 04:37:00,32.8,25.1,30.17,NNW,328,0.0,0.0,73,0.00,,,0.00,0.00,VWS V14.01,2013-03-09 09:37:00,
2013-03-09 04:42:00,32.9,25.2,30.17,NNW,328,0.0,4.0,73,0.00,,,0.00,0.00,VWS V14.01,2013-03-09 09:42:00,
2013-03-09 04:47:00,33.1,25.4,30.17,NNW,328,0.0,0.0,73,0.00,,,0.00,0.00,VWS V14.01,2013-03-09 09:47:00,
2013-03-09 04:52:00,33.2,25.5,30.17,NNW,328,0.0,0.0,73,0.00,,,0.00,0.00,VWS V14.01,2013-03-09 09:52:00,
2013-03-09 04:57:00,33.4,25.4,30.17,NNW,328,0.0,0.0,72,0.00,,,0.00,0.00,VWS V14.01,2013-03-09 09:57:00,
2013-03-09 05:02:00,33.4,25.4,30.18,NNW,328,0.0,4.0,72,0.00,,,0.00,0.00,VWS V14.01,2013-03-09 10:02:00,
2013-03-09 05:07:00,33.5,25.5,30.18,NNW,328,0.0,1.0,72,0.00,,,0.00,0.00,VWS V14.01,2013-03-09 10:07:00,
2013-03-09 05:12:00,33.5,25.5,30.18,NNW,328,0.0,0.0,72,0.00,,,0.00,0.00,VWS V14.01,2013-03-09 10:12:00,
2013-03-09 05:17:00,33.5,25.5,30.19,NNW,328,2.0,2.0,72,0.00,,,0.00,0.00,VWS V14.01,2013-03-09 10:17:00,
2013-03-09 05:22:00,33.5,25.8,30.19,NNW,328,0.0,0.0,73,0.00,,,0.00,0.00,VWS V14.01,2013-03-09 10:22:00,
2013-03-09 05:27:00,33.4,25.7,30.19,NNW,328,0.0,0.0,73,0.00,,,0.00,0.00,VWS V14.01,2013-03-09 10:27:00,
2013-03-09 05:32:00,33.4,25.7,30.19,NNW,328,0.0,0.0,73,0.00,,,0.00,0.00,VWS V14.01,2013-03-09 10:32:00,
2013-03-09 05:37:00,33.2,25.8,30.19,NNW,328,0.0,0.0,74,0.00,,,0.00,0.00,VWS V14.01,2013-03-09 10:37:00,
2013-03-09 05:42:00,33.1,26.0,30.19,NNW,328,0.0,0.0,75,0.00,,,0.00,0.00,VWS V14.01,2013-03-09 10:42:00,
2013-03-09 05:47:00,32.9,25.9,30.19,NNW,328,0.0,0.0,75,0.00,,,0.00,0.00,VWS V14.01,2013-03-09 10:47:00,
2013-03-09 05:52:00,32.7,26.0,30.19,NNW,328,0.0,0.0,76,0.00,,,0.00,0.00,VWS V14.01,2013-03-09 10:52:00,
2013-03-09 05:57:00,32.4,25.7,30.19,NNW,328,0.0,0.0,76,0.00,,,0.00,0.00,VWS V14.01,2013-03-09 10:57:00,
2013-03-09 06:02:00,32.2,25.8,30.19,NNW,328,0.0,0.0,77,0.00,,,0.00,0.00,VWS V14.01,2013-03-09 11:02:00,
2013-03-09 06:07:00,31.9,25.5,30.19,NNW,328,0.0,0.0,77,0.00,,,0.00,0.00,VWS V14.01,2013-03-09 11:07:00,
2013-03-09 06:12:00,31.8,25.7,30.19,NNW,328,0.0,0.0,78,0.00,,,0.00,0.00,VWS V14.01,2013-03-09 11:12:00,
2013-03-09 06:17:00,31.5,25.4,30.19,NNW,328,0.0,0.0,78,0.00,,,0.00,0.00,VWS V14.01,2013-03-09 11:17:00,
2013-03-09 06:22:00,31.3,25.2,30.19,NNW,328,0.0,0.0,78,0.00,,,0.00,0.00,VWS V14.01,2013-03-09 11:22:00,
2013-03-09 06:27:00,31.3,25.2,30.19,NNW,328,0.0,0.0,78,0.00,,,0.00,0.00,VWS V14.01,2013-03-09 11:27:00,
2013-03-09 06:32:00,31.2,25.1,30.20,NNW,328,0.0,0.0,78,0.00,,,0.00,0.00,VWS V14.01,2013-03-09 11:32:00,
2013-03-09 06:37:00,31.0,25.0,30.20,NNW,328,0.0,0.0,78,0.00,,,0.00,5.00,VWS V14.01,2013-03-09 11:37:00,
2013-03-09 06:42:00,31.0,25.0,30.20,NNW,328,0.0,0.0,78,0.00,,,0.00,7.00,VWS V14.01,2013-03-09 11:42:00,
2013-03-09 06:47:00,31.0,25.0,30.20,NNW,328,0.0,0.0,78,0.00,,,0.00,11.00,VWS V14.01,2013-03-09 11:47:00,
2013-03-09 06:52:00,30.9,25.2,30.20,NNW,328,1.0,3.0,79,0.00,,,0.00,12.00,VWS V14.01,2013-03-09 11:52:00,
2013-03-09 06:57:00,31.0,25.3,30.20,NNW,328,0.0,0.0,79,0.00,,,0.00,14.00,VWS V14.01,2013-03-09 11:57:00,
2013-03-09 07:02:00,31.2,25.5,30.20,NNW,328,0.0,0.0,79,0.00,,,0.00,16.00,VWS V14.01,2013-03-09 12:02:00,
2013-03-09 07:07:00,31.2,25.5,30.20,NNW,328,0.0,0.0,79,0.00,,,0.00,18.00,VWS V14.01,2013-03-09 12:07:00,
2013-03-09 07:12:00,31.3,25.9,30.20,NNW,328,0.0,0.0,80,0.00,,,0.00,21.00,VWS V14.01,2013-03-09 12:12:00,
2013-03-09 07:17:00,31.6,25.9,30.20,NNW,333,0.0,0.0,79,0.00,,,0.00,23.00,VWS V14.01,2013-03-09 12:17:00,
2013-03-09 07:22:00,31.9,26.1,30.20,NNW,333,0.0,0.0,79,0.00,,,0.00,26.00,VWS V14.01,2013-03-09 12:22:00,
2013-03-09 07:27:00,32.4,26.3,30.20,NNW,333,0.0,0.0,78,0.00,,,0.00,26.00,VWS V14.01,2013-03-09 12:27:00,
2013-03-09 07:32:00,32.9,26.2,30.21,NNW,333,2.0,4.0,76,0.00,,,0.00,28.00,VWS V14.01,2013-03-09 12:32:00,
2013-03-09 07:37:00,33.5,26.4,30.21,NNW,333,0.0,0.0,75,0.00,,,0.00,30.00,VWS V14.01,2013-03-09 12:37:00,
2013-03-09 07:42:00,34.3,26.6,30.21,NNW,333,0.0,0.0,73,0.00,,,0.00,30.00,VWS V14.01,2013-03-09 12:42:00,
2013-03-09 07:47:00,35.0,26.6,30.22,NNE,14,1.0,2.0,71,0.00,,,0.00,32.00,VWS V14.01,2013-03-09 12:47:00,
2013-03-09 07:52:00,35.6,26.8,30.22,North,358,4.0,4.0,70,0.00,,,0.00,32.00,VWS V14.01,2013-03-09 12:52:00,
2013-03-09 07:57:00,36.2,26.7,30.22,North,354,0.0,0.0,68,0.00,,,0.00,33.00,VWS V14.01,2013-03-09 12:57:00,
2013-03-09 08:02:00,36.8,26.9,30.22,NNW,330,3.0,5.0,67,0.00,,,0.00,33.00,VWS V14.01,2013-03-09 13:02:00,
2013-03-09 08:07:00,37.3,27.0,30.22,North,349,0.0,1.0,66,0.00,,,0.00,35.00,VWS V14.01,2013-03-09 13:07:00,
2013-03-09 08:12:00,37.9,27.2,30.22,North,358,1.0,1.0,65,0.00,,,0.00,35.00,VWS V14.01,2013-03-09 13:12:00,
2013-03-09 08:17:00,38.6,26.7,30.22,North,0,4.0,7.0,62,0.00,,,0.00,35.00,VWS V14.01,2013-03-09 13:17:00,
2013-03-09 08:22:00,39.6,26.9,30.22,NE,38,1.0,6.0,60,0.00,,,0.00,37.00,VWS V14.01,2013-03-09 13:22:00,
2013-03-09 08:27:00,40.6,26.6,30.22,North,357,6.0,6.0,57,0.00,,,0.00,37.00,VWS V14.01,2013-03-09 13:27:00,
2013-03-09 08:32:00,41.5,27.0,30.23,North,358,0.0,0.0,56,0.00,,,0.00,37.00,VWS V14.01,2013-03-09 13:32:00,
2013-03-09 08:37:00,42.3,26.4,30.23,North,8,7.0,12.0,53,0.00,,,0.00,39.00,VWS V14.01,2013-03-09 13:37:00,
2013-03-09 08:42:00,43.1,26.2,30.23,North,0,5.0,8.0,51,0.00,,,0.00,39.00,VWS V14.01,2013-03-09 13:42:00,
2013-03-09 08:47:00,43.6,25.2,30.24,North,358,6.0,12.0,48,0.00,,,0.00,40.00,VWS V14.01,2013-03-09 13:47:00,
2013-03-09 08:52:00,44.2,25.3,30.24,NNE,15,3.0,8.0,47,0.00,,,0.00,40.00,VWS V14.01,2013-03-09 13:52:00,
2013-03-09 08:57:00,44.6,25.6,30.24,North,358,13.0,13.0,47,0.00,,,0.00,438.00,VWS V14.01,2013-03-09 13:57:00,
2013-03-09 09:02:00,45.2,25.7,30.23,NNE,33,6.0,6.0,46,0.00,,,0.00,457.00,VWS V14.01,2013-03-09 14:02:00,
2013-03-09 09:07:00,46.1,26.0,30.23,NE,35,11.0,11.0,45,0.00,,,0.00,471.00,VWS V14.01,2013-03-09 14:07:00,
2013-03-09 09:12:00,46.7,26.0,30.23,NE,49,5.0,5.0,44,0.00,,,0.00,489.00,VWS V14.01,2013-03-09 14:12:00,
2013-03-09 09:17:00,47.1,25.8,30.23,ENE,60,1.0,6.0,43,0.00,,,0.00,504.00,VWS V14.01,2013-03-09 14:17:00,
2013-03-09 09:22:00,47.6,26.2,30.23,NNE,21,0.0,0.0,43,0.00,,,0.00,522.00,VWS V14.01,2013-03-09 14:22:00,
2013-03-09 09:27:00,47.9,25.9,30.23,North,0,2.0,5.0,42,0.00,,,0.00,534.00,VWS V14.01,2013-03-09 14:27:00,
2013-03-09 09:32:00,48.2,26.2,30.23,NE,49,4.0,5.0,42,0.00,,,0.00,550.00,VWS V14.01,2013-03-09 14:32:00,
2013-03-09 09:37:00,48.6,26.6,30.23,North,4,6.0,6.0,42,0.00,,,0.00,564.00,VWS V14.01,2013-03-09 14:37:00,
2013-03-09 09:42:00,49.1,26.4,30.23,NNE,23,6.0,7.0,41,0.00,,,0.00,578.00,VWS V14.01,2013-03-09 14:42:00,
2013-03-09 09:47:00,49.4,26.7,30.23,NW,314,2.0,2.0,41,0.00,,,0.00,592.00,VWS V14.01,2013-03-09 14:47:00,
2013-03-09 09:52:00,49.5,26.2,30.23,NNE,30,3.0,5.0,40,0.00,,,0.00,606.00,VWS V14.01,2013-03-09 14:52:00,
2013-03-09 09:57:00,49.9,26.0,30.23,North,0,6.0,6.0,39,0.00,,,0.00,621.00,VWS V14.01,2013-03-09 14:57:00,
2013-03-09 10:02:00,49.9,26.0,30.23,NNW,327,0.0,0.0,39,0.00,,,0.00,631.00,VWS V14.01,2013-03-09 15:02:00,
2013-03-09 10:07:00,50.5,26.5,30.23,NNE,20,5.0,6.0,39,0.00,,,0.00,643.00,VWS V14.01,2013-03-09 15:07:00,
2013-03-09 10:12:00,51.1,27.0,30.23,North,0,0.0,0.0,39,0.00,,,0.00,659.00,VWS V14.01,2013-03-09 15:12:00,
2013-03-09 10:16:00,51.7,26.3,30.23,North,358,5.0,7.0,37,0.00,,,0.00,670.00,VWS V14.01,2013-03-09 15:16:00,
2013-03-09 10:21:00,52.2,26.7,30.23,NE,51,0.0,0.0,37,0.00,,,0.00,682.00,VWS V14.01,2013-03-09 15:21:00,
2013-03-09 10:26:00,52.5,25.7,30.23,North,0,4.0,6.0,35,0.00,,,0.00,693.00,VWS V14.01,2013-03-09 15:26:00,
2013-03-09 10:31:00,52.8,26.6,30.23,NNE,25,6.0,7.0,36,0.00,,,0.00,703.00,VWS V14.01,2013-03-09 15:31:00,
2013-03-09 10:36:00,52.9,26.0,30.23,NE,51,5.0,5.0,35,0.00,,,0.00,715.00,VWS V14.01,2013-03-09 15:36:00,
2013-03-09 10:41:00,52.9,26.0,30.23,North,1,7.0,7.0,35,0.00,,,0.00,724.00,VWS V14.01,2013-03-09 15:41:00,
2013-03-09 10:46:00,53.5,26.5,30.22,NE,39,0.0,0.0,35,0.00,,,0.00,733.00,VWS V14.01,2013-03-09 15:46:00,
2013-03-09 10:51:00,54.2,27.2,30.22,NNW,335,2.0,5.0,35,0.00,,,0.00,744.00,VWS V14.01,2013-03-09 15:51:00,
2013-03-09 10:56:00,54.5,27.4,30.22,NNE,27,0.0,5.0,35,0.00,,,0.00,751.00,VWS V14.01,2013-03-09 15:56:00,
2013-03-09 11:01:00,54.7,27.6,30.22,WNW,298,4.0,4.0,35,0.00,,,0.00,763.00,VWS V14.01,2013-03-09 16:01:00,
2013-03-09 11:06:00,55.0,27.2,30.22,ENE,72,0.0,5.0,34,0.00,,,0.00,770.00,VWS V14.01,2013-03-09 16:06:00,
2013-03-09 11:11:00,55.3,26.7,30.22,NW,312,0.0,4.0,33,0.00,,,0.00,777.00,VWS V14.01,2013-03-09 16:11:00,
2013-03-09 11:16:00,55.9,27.2,30.22,WNW,286,8.0,9.0,33,0.00,,,0.00,784.00,VWS V14.01,2013-03-09 16:16:00,
2013-03-09 11:21:00,56.0,25.8,30.22,North,0,0.0,0.0,31,0.00,,,0.00,793.00,VWS V14.01,2013-03-09 16:21:00,
2013-03-09 11:26:00,56.3,26.8,30.22,NE,39,5.0,9.0,32,0.00,,,0.00,796.00,VWS V14.01,2013-03-09 16:26:00,
2013-03-09 11:31:00,56.5,26.2,30.22,NNE,18,0.0,0.0,31,0.00,,,0.00,805.00,VWS V14.01,2013-03-09 16:31:00,
2013-03-09 11:36:00,57.0,27.5,30.22,North,358,11.0,11.0,32,0.00,,,0.00,812.00,VWS V14.01,2013-03-09 16:36:00,
2013-03-09 11:41:00,57.2,26.9,30.22,ENE,65,0.0,4.0,31,0.00,,,0.00,817.00,VWS V14.01,2013-03-09 16:41:00,
2013-03-09 11:46:00,57.3,27.0,30.21,North,6,5.0,7.0,31,0.00,,,0.00,824.00,VWS V14.01,2013-03-09 16:46:00,
2013-03-09 11:51:00,57.6,26.4,30.21,North,6,6.0,6.0,30,0.00,,,0.00,826.00,VWS V14.01,2013-03-09 16:51:00,
2013-03-09 11:56:00,58.0,26.8,30.21,WSW,257,0.0,1.0,30,0.00,,,0.00,830.00,VWS V14.01,2013-03-09 16:56:00,
2013-03-09 12:02:00,58.3,25.4,30.21,WSW,257,0.0,0.0,28,0.00,,,0.00,831.00,VWS V14.01,2013-03-09 17:02:00,
2013-03-09 12:07:00,58.9,28.3,30.21,NNW,333,3.0,5.0,31,0.00,,,0.00,837.00,VWS V14.01,2013-03-09 17:07:00,
2013-03-09 12:12:00,58.9,25.9,30.21,East,79,0.0,4.0,28,0.00,,,0.00,837.00,VWS V14.01,2013-03-09 17:12:00,
2013-03-09 12:17:00,59.0,27.6,30.21,West,278,0.0,0.0,30,0.00,,,0.00,837.00,VWS V14.01,2013-03-09 17:17:00,
2013-03-09 12:22:00,59.3,26.2,30.21,ENE,68,1.0,2.0,28,0.00,,,0.00,846.00,VWS V14.01,2013-03-09 17:22:00,
2013-03-09 12:27:00,59.8,25.8,30.21,WNW,283,10.0,10.0,27,0.00,,,0.00,844.00,VWS V14.01,2013-03-09 17:27:00,
2013-03-09 12:32:00,60.1,26.0,30.20,NW,320,3.0,8.0,27,0.00,,,0.00,840.00,VWS V14.01,2013-03-09 17:32:00,
2013-03-09 12:37:00,60.2,27.0,30.20,North,0,0.0,5.0,28,0.00,,,0.00,838.00,VWS V14.01,2013-03-09 17:37:00,
2013-03-09 12:42:00,60.2,26.1,30.20,West,269,1.0,5.0,27,0.00,,,0.00,840.00,VWS V14.01,2013-03-09 17:42:00,
2013-03-09 12:47:00,60.5,26.4,30.20,ENE,61,5.0,5.0,27,0.00,,,0.00,838.00,VWS V14.01,2013-03-09 17:47:00,
2013-03-09 12:52:00,60.9,25.8,30.20,North,11,3.0,6.0,26,0.00,,,0.00,835.00,VWS V14.01,2013-03-09 17:52:00,
2013-03-09 12:57:00,61.3,26.1,30.20,North,350,3.0,10.0,26,0.00,,,0.00,835.00,VWS V14.01,2013-03-09 17:57:00,
2013-03-09 13:02:00,61.0,25.0,30.19,North,0,5.0,10.0,25,0.00,,,0.00,831.00,VWS V14.01,2013-03-09 18:02:00,
2013-03-09 13:07:00,61.2,26.1,30.19,North,354,3.0,6.0,26,0.00,,,0.00,828.00,VWS V14.01,2013-03-09 18:07:00,
2013-03-09 13:12:00,61.3,25.2,30.19,North,358,0.0,4.0,25,0.00,,,0.00,824.00,VWS V14.01,2013-03-09 18:12:00,
2013-03-09 13:17:00,61.5,24.4,30.18,NW,322,9.0,9.0,24,0.00,,,0.00,821.00,VWS V14.01,2013-03-09 18:17:00,
2013-03-09 13:22:00,61.8,25.6,30.18,NE,41,5.0,11.0,25,0.00,,,0.00,817.00,VWS V14.01,2013-03-09 18:22:00,
2013-03-09 13:27:00,62.1,24.9,30.18,ENE,70,4.0,7.0,24,0.00,,,0.00,814.00,VWS V14.01,2013-03-09 18:27:00,
2013-03-09 13:32:00,62.1,24.9,30.17,NE,46,4.0,9.0,24,0.00,,,0.00,809.00,VWS V14.01,2013-03-09 18:32:00,
2013-03-09 13:37:00,62.3,26.1,30.17,ENE,60,3.0,9.0,25,0.00,,,0.00,800.00,VWS V14.01,2013-03-09 18:37:00,
2013-03-09 13:42:00,62.9,25.6,30.17,NE,53,0.0,0.0,24,0.00,,,0.00,796.00,VWS V14.01,2013-03-09 18:42:00,
2013-03-09 13:47:00,63.4,25.0,30.17,North,0,4.0,8.0,23,0.00,,,0.00,789.00,VWS V14.01,2013-03-09 18:47:00,
2013-03-09 13:52:00,63.2,25.8,30.17,NE,44,6.0,12.0,24,0.00,,,0.00,782.00,VWS V14.01,2013-03-09 18:52:00,
2013-03-09 13:57:00,63.2,24.8,30.17,North,358,6.0,7.0,23,0.00,,,0.00,772.00,VWS V14.01,2013-03-09 18:57:00,
2013-03-09 14:02:00,62.7,25.4,30.17,NE,56,0.0,0.0,24,0.00,,,0.00,766.00,VWS V14.01,2013-03-09 19:02:00,
2013-03-09 14:07:00,62.9,24.6,30.17,NE,37,0.0,1.0,23,0.00,,,0.00,758.00,VWS V14.01,2013-03-09 19:07:00,
2013-03-09 14:12:00,63.4,25.0,30.17,North,10,0.0,3.0,23,0.00,,,0.00,749.00,VWS V14.01,2013-03-09 19:12:00,
2013-03-09 14:17:00,64.0,25.5,30.16,North,350,3.0,3.0,23,0.00,,,0.00,735.00,VWS V14.01,2013-03-09 19:17:00,
2013-03-09 14:22:00,64.2,25.7,30.16,NNW,347,7.0,7.0,23,0.00,,,0.00,728.00,VWS V14.01,2013-03-09 19:22:00,
2013-03-09 14:27:00,64.2,25.7,30.16,North,358,0.0,0.0,23,0.00,,,0.00,719.00,VWS V14.01,2013-03-09 19:27:00,
2013-03-09 14:32:00,64.5,24.8,30.16,North,1,0.0,0.0,22,0.00,,,0.00,708.00,VWS V14.01,2013-03-09 19:32:00,
2013-03-09 14:37:00,65.0,25.3,30.16,NNW,345,1.0,4.0,22,0.00,,,0.00,698.00,VWS V14.01,2013-03-09 19:37:00,
2013-03-09 14:42:00,65.2,25.4,30.16,WNW,297,6.0,7.0,22,0.00,,,0.00,686.00,VWS V14.01,2013-03-09 19:42:00,
2013-03-09 14:47:00,64.8,25.1,30.16,East,83,5.0,8.0,22,0.00,,,0.00,671.00,VWS V14.01,2013-03-09 19:47:00,
2013-03-09 14:52:00,64.5,24.8,30.16,NE,48,0.0,0.0,22,0.00,,,0.00,661.00,VWS V14.01,2013-03-09 19:52:00,
2013-03-09 14:57:00,65.2,24.3,30.16,North,0,6.0,7.0,21,0.00,,,0.00,645.00,VWS V14.01,2013-03-09 19:57:00,
2013-03-09 15:02:00,65.5,23.4,30.15,North,0,5.0,6.0,20,0.00,,,0.00,635.00,VWS V14.01,2013-03-09 20:02:00,
2013-03-09 15:07:00,65.2,25.4,30.15,NNW,340,3.0,9.0,22,0.00,,,0.00,621.00,VWS V14.01,2013-03-09 20:07:00,
2013-03-09 15:12:00,65.2,24.3,30.15,North,8,0.0,1.0,21,0.00,,,0.00,606.00,VWS V14.01,2013-03-09 20:12:00,
2013-03-09 15:17:00,65.5,25.7,30.15,NNE,13,0.0,4.0,22,0.00,,,0.00,594.00,VWS V14.01,2013-03-09 20:17:00,
2013-03-09 15:22:00,65.3,25.5,30.15,NNE,18,0.0,0.0,22,0.00,,,0.00,577.00,VWS V14.01,2013-03-09 20:22:00,
2013-03-09 15:27:00,65.5,25.7,30.15,ENE,65,2.0,5.0,22,0.00,,,0.00,566.00,VWS V14.01,2013-03-09 20:27:00,
2013-03-09 15:32:00,65.6,24.6,30.15,ENE,64,0.0,4.0,21,0.00,,,0.00,548.00,VWS V14.01,2013-03-09 20:32:00,
2013-03-09 15:37:00,65.3,25.5,30.15,ENE,70,9.0,11.0,22,0.00,,,0.00,538.00,VWS V14.01,2013-03-09 20:37:00,
2013-03-09 15:42:00,64.8,25.1,30.15,North,8,0.0,4.0,22,0.00,,,0.00,519.00,VWS V14.01,2013-03-09 20:42:00,
2013-03-09 15:47:00,65.2,25.4,30.14,NNE,29,3.0,8.0,22,0.00,,,0.00,503.00,VWS V14.01,2013-03-09 20:47:00,
2013-03-09 15:52:00,65.2,25.4,30.14,North,0,0.0,0.0,22,0.00,,,0.00,490.00,VWS V14.01,2013-03-09 20:52:00,
2013-03-09 15:57:00,65.5,24.6,30.14,NNW,344,4.0,5.0,21,0.00,,,0.00,475.00,VWS V14.01,2013-03-09 20:57:00,
2013-03-09 16:02:00,65.5,24.6,30.14,ENE,66,0.0,2.0,21,0.00,,,0.00,455.00,VWS V14.01,2013-03-09 21:02:00,
2013-03-09 16:07:00,65.3,25.5,30.14,WNW,290,0.0,1.0,22,0.00,,,0.00,439.00,VWS V14.01,2013-03-09 21:07:00,
2013-03-09 16:12:00,65.3,25.5,30.14,NNW,328,5.0,5.0,22,0.00,,,0.00,422.00,VWS V14.01,2013-03-09 21:12:00,
2013-03-09 16:17:00,65.0,25.3,30.14,North,0,0.0,1.0,22,0.00,,,0.00,403.00,VWS V14.01,2013-03-09 21:17:00,
2013-03-09 16:22:00,64.8,25.1,30.14,North,0,6.0,7.0,22,0.00,,,0.00,387.00,VWS V14.01,2013-03-09 21:22:00,
2013-03-09 16:27:00,64.7,26.1,30.14,WNW,293,5.0,6.0,23,0.00,,,0.00,371.00,VWS V14.01,2013-03-09 21:27:00,
2013-03-09 16:32:00,64.7,26.1,30.14,NE,53,1.0,5.0,23,0.00,,,0.00,352.00,VWS V14.01,2013-03-09 21:32:00,
2013-03-09 16:37:00,64.8,25.1,30.14,North,8,0.0,1.0,22,0.00,,,0.00,334.00,VWS V14.01,2013-03-09 21:37:00,
2013-03-09 16:42:00,64.2,24.6,30.14,NE,44,0.0,0.0,22,0.00,,,0.00,315.00,VWS V14.01,2013-03-09 21:42:00,
2013-03-09 16:47:00,63.7,24.2,30.14,NE,50,0.0,2.0,22,0.00,,,0.00,297.00,VWS V14.01,2013-03-09 21:47:00,
2013-03-09 16:52:00,63.2,25.8,30.14,NNE,31,1.0,1.0,24,0.00,,,0.00,127.00,VWS V14.01,2013-03-09 21:52:00,
2013-03-09 16:57:00,62.7,25.4,30.14,NE,50,1.0,3.0,24,0.00,,,0.00,56.00,VWS V14.01,2013-03-09 21:57:00,
2013-03-09 17:02:00,62.7,25.4,30.14,NE,50,0.0,2.0,24,0.00,,,0.00,221.00,VWS V14.01,2013-03-09 22:02:00,
2013-03-09 17:07:00,63.1,24.7,30.14,NE,35,0.0,4.0,23,0.00,,,0.00,223.00,VWS V14.01,2013-03-09 22:07:00,
2013-03-09 17:12:00,62.9,25.6,30.14,NE,35,0.0,3.0,24,0.00,,,0.00,51.00,VWS V14.01,2013-03-09 22:12:00,
2013-03-09 17:17:00,62.4,26.1,30.15,ENE,68,0.0,4.0,25,0.00,,,0.00,121.00,VWS V14.01,2013-03-09 22:17:00,
2013-03-09 17:22:00,62.3,26.1,30.15,ENE,60,3.0,4.0,25,0.00,,,0.00,49.00,VWS V14.01,2013-03-09 22:22:00,
2013-03-09 17:27:00,61.6,26.4,30.15,NE,56,3.0,4.0,26,0.00,,,0.00,35.00,VWS V14.01,2013-03-09 22:27:00,
2013-03-09 17:32:00,61.2,26.1,30.15,East,82,0.0,0.0,26,0.00,,,0.00,33.00,VWS V14.01,2013-03-09 22:32:00,
2013-03-09 17:37:00,60.7,27.4,30.15,ENE,61,0.0,1.0,28,0.00,,,0.00,30.00,VWS V14.01,2013-03-09 22:37:00,
2013-03-09 17:42:00,60.2,26.1,30.15,ENE,77,0.0,0.0,27,0.00,,,0.00,26.00,VWS V14.01,2013-03-09 22:42:00,
2013-03-09 17:47:00,59.8,26.6,30.15,East,84,4.0,6.0,28,0.00,,,0.00,23.00,VWS V14.01,2013-03-09 22:47:00,
2013-03-09 17:52:00,59.3,26.2,30.15,NE,38,0.0,4.0,28,0.00,,,0.00,19.00,VWS V14.01,2013-03-09 22:52:00,
2013-03-09 17:57:00,58.9,25.0,30.15,ENE,60,0.0,2.0,27,0.00,,,0.00,16.00,VWS V14.01,2013-03-09 22:57:00,
2013-03-09 18:02:00,58.6,25.6,30.16,ENE,72,0.0,0.0,28,0.00,,,0.00,12.00,VWS V14.01,2013-03-09 23:02:00,
2013-03-09 18:07:00,58.1,26.0,30.16,ENE,72,0.0,0.0,29,0.00,,,0.00,11.00,VWS V14.01,2013-03-09 23:07:00,
2013-03-09 18:12:00,57.6,26.4,30.16,ENE,72,0.0,0.0,30,0.00,,,0.00,7.00,VWS V14.01,2013-03-09 23:12:00,
2013-03-09 18:17:00,57.0,26.7,30.16,ENE,72,0.0,0.0,31,0.00,,,0.00,5.00,VWS V14.01,2013-03-09 23:17:00,
2013-03-09 18:22:00,56.5,26.2,30.16,ENE,72,0.0,0.0,31,0.00,,,0.00,0.00,VWS V14.01,2013-03-09 23:22:00,
2013-03-09 18:27:00,55.9,26.5,30.16,ENE,72,0.0,0.0,32,0.00,,,0.00,0.00,VWS V14.01,2013-03-09 23:27:00,
2013-03-09 18:32:00,55.1,27.3,30.16,ENE,72,0.0,0.0,34,0.00,,,0.00,0.00,VWS V14.01,2013-03-09 23:32:00,
2013-03-09 18:37:00,54.4,28.0,30.16,ENE,72,0.0,0.0,36,0.00,,,0.00,0.00,VWS V14.01,2013-03-09 23:37:00,
2013-03-09 18:42:00,53.6,29.3,30.16,ENE,72,0.0,0.0,39,0.00,,,0.00,0.00,VWS V14.01,2013-03-09 23:42:00,
2013-03-09 18:47:00,52.8,29.2,30.17,ENE,72,0.0,0.0,40,0.00,,,0.00,0.00,VWS V14.01,2013-03-09 23:47:00,
2013-03-09 18:52:00,52.0,28.5,30.17,ENE,72,0.0,0.0,40,0.00,,,0.00,0.00,VWS V14.01,2013-03-09 23:52:00,
2013-03-09 18:57:00,51.3,29.0,30.17,ENE,72,0.0,0.0,42,0.00,,,0.00,0.00,VWS V14.01,2013-03-09 23:57:00,
2013-03-09 19:02:00,50.5,28.3,30.17,ENE,72,0.0,0.0,42,0.00,,,0.00,0.00,VWS V14.01,2013-03-10 00:02:00,
2013-03-09 19:07:00,49.9,28.3,30.17,ENE,72,0.0,0.0,43,0.00,,,0.00,0.00,VWS V14.01,2013-03-10 00:07:00,
2013-03-09 19:12:00,49.2,29.3,30.17,ENE,72,0.0,0.0,46,0.00,,,0.00,0.00,VWS V14.01,2013-03-10 00:12:00,
2013-03-09 19:17:00,48.6,29.8,30.17,ENE,72,0.0,0.0,48,0.00,,,0.00,0.00,VWS V14.01,2013-03-10 00:17:00,
2013-03-09 19:22:00,48.0,30.3,30.17,ENE,72,0.0,0.0,50,0.00,,,0.00,0.00,VWS V14.01,2013-03-10 00:22:00,
2013-03-09 19:27:00,47.4,30.2,30.17,ENE,72,0.0,0.0,51,0.00,,,0.00,0.00,VWS V14.01,2013-03-10 00:27:00,
2013-03-09 19:32:00,47.0,30.3,30.18,ENE,72,0.0,0.0,52,0.00,,,0.00,0.00,VWS V14.01,2013-03-10 00:32:00,
2013-03-09 19:36:00,46.5,30.8,30.18,ENE,72,0.0,0.0,54,0.00,,,0.00,0.00,VWS V14.01,2013-03-10 00:36:00,
2013-03-09 19:42:00,46.1,31.7,30.18,ENE,72,0.0,0.0,57,0.00,,,0.00,0.00,VWS V14.01,2013-03-10 00:42:00,
2013-03-09 19:46:00,45.8,31.5,30.18,ENE,72,0.0,0.0,57,0.00,,,0.00,0.00,VWS V14.01,2013-03-10 00:46:00,
2013-03-09 19:51:00,45.4,31.9,30.18,ENE,72,0.0,0.0,59,0.00,,,0.00,0.00,VWS V14.01,2013-03-10 00:51:00,
2013-03-09 19:56:00,44.9,31.9,30.18,ENE,72,0.0,0.0,60,0.00,,,0.00,0.00,VWS V14.01,2013-03-10 00:56:00,
2013-03-09 20:02:00,44.6,31.6,30.19,ENE,72,0.0,0.0,60,0.00,,,0.00,0.00,VWS V14.01,2013-03-10 01:02:00,
2013-03-09 20:06:00,44.2,31.6,30.19,ENE,72,0.0,0.0,61,0.00,,,0.00,0.00,VWS V14.01,2013-03-10 01:06:00,
2013-03-09 20:12:00,43.8,31.2,30.19,ENE,72,0.0,0.0,61,0.00,,,0.00,0.00,VWS V14.01,2013-03-10 01:12:00,
2013-03-09 20:17:00,43.3,31.6,30.19,ENE,72,0.0,0.0,63,0.00,,,0.00,0.00,VWS V14.01,2013-03-10 01:17:00,
2013-03-09 20:22:00,42.9,31.6,30.19,ENE,72,0.0,0.0,64,0.00,,,0.00,0.00,VWS V14.01,2013-03-10 01:22:00,
2013-03-09 20:27:00,42.6,31.3,30.19,ENE,72,0.0,0.0,64,0.00,,,0.00,0.00,VWS V14.01,2013-03-10 01:27:00,
2013-03-09 20:32:00,42.3,31.4,30.19,ENE,72,0.0,0.0,65,0.00,,,0.00,0.00,VWS V14.01,2013-03-10 01:32:00,
2013-03-09 20:37:00,41.9,31.4,30.19,ENE,72,0.0,0.0,66,0.00,,,0.00,0.00,VWS V14.01,2013-03-10 01:37:00,
2013-03-09 20:42:00,41.6,31.5,30.19,ENE,72,0.0,0.0,67,0.00,,,0.00,0.00,VWS V14.01,2013-03-10 01:42:00,
2013-03-09 20:47:00,41.3,31.2,30.19,ENE,72,0.0,0.0,67,0.00,,,0.00,0.00,VWS V14.01,2013-03-10 01:47:00,
2013-03-09 20:52:00,41.1,31.7,30.19,ENE,72,0.0,0.0,69,0.00,,,0.00,0.00,VWS V14.01,2013-03-10 01:52:00,
2013-03-09 20:57:00,40.8,31.8,30.19,ENE,72,0.0,0.0,70,0.00,,,0.00,0.00,VWS V14.01,2013-03-10 01:57:00,
2013-03-09 21:02:00,40.5,31.9,30.19,ENE,72,0.0,0.0,71,0.00,,,0.00,0.00,VWS V14.01,2013-03-10 02:02:00,
2013-03-09 21:06:00,40.2,31.6,30.19,ENE,72,0.0,0.0,71,0.00,,,0.00,0.00,VWS V14.01,2013-03-10 02:06:00,
2013-03-09 21:11:00,39.9,31.3,30.19,ENE,72,0.0,0.0,71,0.00,,,0.00,0.00,VWS V14.01,2013-03-10 02:11:00,
2013-03-09 21:17:00,39.6,31.0,30.19,ENE,72,0.0,0.0,71,0.00,,,0.00,0.00,VWS V14.01,2013-03-10 02:17:00,
2013-03-09 21:22:00,39.3,30.7,30.19,ENE,72,0.0,0.0,71,0.00,,,0.00,0.00,VWS V14.01,2013-03-10 02:22:00,
2013-03-09 21:26:00,39.1,30.5,30.19,ENE,72,0.0,0.0,71,0.00,,,0.00,0.00,VWS V14.01,2013-03-10 02:26:00,
2013-03-09 21:31:00,38.8,30.2,30.19,ENE,72,0.0,0.0,71,0.00,,,0.00,0.00,VWS V14.01,2013-03-10 02:31:00,
2013-03-09 21:36:00,38.5,29.9,30.19,ENE,72,0.0,0.0,71,0.00,,,0.00,0.00,VWS V14.01,2013-03-10 02:36:00,
2013-03-09 21:41:00,38.3,30.1,30.19,ENE,72,0.0,0.0,72,0.00,,,0.00,0.00,VWS V14.01,2013-03-10 02:41:00,
2013-03-09 21:46:00,38.0,29.8,30.19,ENE,72,0.0,0.0,72,0.00,,,0.00,0.00,VWS V14.01,2013-03-10 02:46:00,
2013-03-09 21:51:00,37.9,30.0,30.19,ENE,72,0.0,0.0,73,0.00,,,0.00,0.00,VWS V14.01,2013-03-10 02:51:00,
2013-03-09 21:56:00,37.6,29.7,30.19,ENE,72,0.0,0.0,73,0.00,,,0.00,0.00,VWS V14.01,2013-03-10 02:56:00,
2013-03-09 22:01:00,37.5,29.6,30.20,ENE,72,0.0,0.0,73,0.00,,,0.00,0.00,VWS V14.01,2013-03-10 03:01:00,
2013-03-09 22:06:00,37.2,29.7,30.20,ENE,72,0.0,0.0,74,0.00,,,0.00,0.00,VWS V14.01,2013-03-10 03:06:00,
2013-03-09 22:11:00,37.0,29.8,30.20,ENE,72,0.0,0.0,75,0.00,,,0.00,0.00,VWS V14.01,2013-03-10 03:11:00,
2013-03-09 22:16:00,36.9,30.0,30.20,ENE,72,0.0,0.0,76,0.00,,,0.00,0.00,VWS V14.01,2013-03-10 03:16:00,
2013-03-09 22:21:00,36.8,30.0,30.20,ENE,72,0.0,0.0,76,0.00,,,0.00,0.00,VWS V14.01,2013-03-10 03:21:00,
2013-03-09 22:26:00,36.6,29.8,30.20,ENE,72,0.0,0.0,76,0.00,,,0.00,0.00,VWS V14.01,2013-03-10 03:26:00,
2013-03-09 22:31:00,36.5,30.0,30.20,ENE,72,0.0,0.0,77,0.00,,,0.00,0.00,VWS V14.01,2013-03-10 03:31:00,
2013-03-09 22:36:00,36.3,30.1,30.20,ENE,72,0.0,0.0,78,0.00,,,0.00,0.00,VWS V14.01,2013-03-10 03:36:00,
2013-03-09 22:41:00,36.3,30.1,30.20,ENE,72,0.0,0.0,78,0.00,,,0.00,0.00,VWS V14.01,2013-03-10 03:41:00,
2013-03-09 22:46:00,36.2,30.3,30.20,ENE,72,0.0,0.0,79,0.00,,,0.00,0.00,VWS V14.01,2013-03-10 03:46:00,
2013-03-09 22:51:00,36.0,30.1,30.20,ENE,72,0.0,0.0,79,0.00,,,0.00,0.00,VWS V14.01,2013-03-10 03:51:00,
2013-03-09 22:56:00,35.9,30.0,30.20,ENE,72,0.0,0.0,79,0.00,,,0.00,0.00,VWS V14.01,2013-03-10 03:56:00,
2013-03-09 23:01:00,35.8,29.9,30.20,ENE,72,0.0,0.0,79,0.00,,,0.00,0.00,VWS V14.01,2013-03-10 04:01:00,
2013-03-09 23:06:00,35.5,29.6,30.20,ENE,72,0.0,0.0,79,0.00,,,0.00,0.00,VWS V14.01,2013-03-10 04:06:00,
2013-03-09 23:11:00,35.3,29.5,30.20,ENE,72,0.0,0.0,79,0.00,,,0.00,0.00,VWS V14.01,2013-03-10 04:11:00,
2013-03-09 23:16:00,35.0,29.2,30.19,ENE,72,0.0,0.0,79,0.00,,,0.00,0.00,VWS V14.01,2013-03-10 04:16:00,
2013-03-09 23:21:00,34.9,29.1,30.19,ENE,72,0.0,0.0,79,0.00,,,0.00,0.00,VWS V14.01,2013-03-10 04:21:00,
2013-03-09 23:26:00,34.7,29.2,30.19,ENE,72,0.0,0.0,80,0.00,,,0.00,0.00,VWS V14.01,2013-03-10 04:26:00,
2013-03-09 23:31:00,34.4,28.9,30.20,ENE,72,0.0,0.0,80,0.00,,,0.00,0.00,VWS V14.01,2013-03-10 04:31:00,
2013-03-09 23:36:00,34.3,28.8,30.20,ENE,72,0.0,0.0,80,0.00,,,0.00,0.00,VWS V14.01,2013-03-10 04:36:00,
2013-03-09 23:41:00,34.1,28.6,30.20,ENE,72,0.0,0.0,80,0.00,,,0.00,0.00,VWS V14.01,2013-03-10 04:41:00,
2013-03-09 23:46:00,34.0,28.8,30.20,ENE,72,0.0,0.0,81,0.00,,,0.00,0.00,VWS V14.01,2013-03-10 04:46:00,
2013-03-09 23:51:00,33.8,28.6,30.20,ENE,72,0.0,0.0,81,0.00,,,0.00,0.00,VWS V14.01,2013-03-10 04:51:00,
2013-03-09 23:56:00,33.7,28.8,30.20,ENE,72,0.0,0.0,82,0.00,,,0.00,0.00,VWS V14.01,2013-03-10 04:56:00,